Total_Precipitation_Accumulation
0.03 0.03 0.07 0.05 0.05 0.07 0.08 0.10 0.10 0.07 0.06 0.06 0.06 0.06 0.06 0.04 0.04 0.05 0.07 0.08 0.09 0.10 0.12 0.13 0.14 0.17 0.17 0.18 0.18 0.15 0.13 0.14 0.16 0.22 0.24 0.24 0.28 0.47 0.71 0.80 0.92 0.64 0.56
0.02 0.02 0.06 0.06 0.06 0.07 0.10 0.12 0.12 0.10 0.07 0.06 0.06 0.06 0.06 0.05 0.05 0.05 0.06 0.07 0.08 0.08 0.08 0.10 0.12 0.12 0.12 0.12 0.12 0.09 0.10 0.14 0.21 0.28 0.28 0.22 0.30 0.46 0.64 0.67 0.89 0.57 0.46
0.02 0.02 0.05 0.06 0.07 0.08 0.10 0.11 0.13 0.13 0.08 0.07 0.06 0.08 0.10 0.06 0.04 0.05 0.05 0.05 0.06 0.06 0.06 0.08 0.09 0.08 0.07 0.06 0.07 0.07 0.09 0.15 0.28 0.38 0.59 0.37 0.23 0.46 0.62 0.65 0.60 0.40 0.36
0.02 0.02 0.03 0.05 0.07 0.07 0.08 0.10 0.13 0.14 0.10 0.09 0.10 0.11 0.11 0.08 0.05 0.04 0.05 0.05 0.05 0.06 0.05 0.06 0.06 0.06 0.04 0.04 0.04 0.07 0.10 0.19 0.35 0.54 0.80 0.46 0.22 0.32 0.46 0.45 0.37 0.29 0.29
0.04 0.02 0.04 0.06 0.06 0.07 0.08 0.08 0.13 0.17 0.14 0.12 0.15 0.14 0.12 0.11 0.08 0.07 0.06 0.08 0.07 0.06 0.05 0.05 0.05 0.04 0.04 0.04 0.05 0.06 0.09 0.18 0.36 0.56 0.58 0.47 0.46 0.33 0.34 0.38 0.40 0.35 0.31
0.07 0.04 0.05 0.08 0.09 0.09 0.09 0.08 0.12 0.17 0.17 0.15 0.15 0.17 0.15 0.16 0.17 0.12 0.08 0.09 0.10 0.07 0.05 0.05 0.04 0.03 0.03 0.04 0.05 0.07 0.12 0.22 0.33 0.36 0.31 0.32 0.46 0.43 0.37 0.51 0.57 0.53 0.42
0.13 0.07 0.07 0.09 0.10 0.10 0.10 0.11 0.11 0.13 0.13 0.12 0.11 0.10 0.10 0.13 0.20 0.16 0.12 0.11 0.10 0.08 0.06 0.05 0.04 0.04 0.04 0.05 0.06 0.09 0.16 0.28 0.32 0.29 0.26 0.32 0.37 0.32 0.41 0.64 0.79 0.76 0.62
0.28 0.19 0.15 0.15 0.14 0.12 0.12 0.13 0.14 0.13 0.11 0.10 0.08 0.06 0.07 0.08 0.10 0.13 0.14 0.13 0.11 0.08 0.06 0.06 0.06 0.05 0.05 0.06 0.07 0.10 0.16 0.25 0.27 0.30 0.25 0.27 0.27 0.30 0.49 0.72 0.85 0.90 0.82
0.43 0.33 0.25 0.19 0.17 0.17 0.18 0.18 0.16 0.14 0.13 0.12 0.11 0.10 0.10 0.10 0.11 0.14 0.15 0.15 0.15 0.14 0.11 0.08 0.07 0.08 0.08 0.07 0.07 0.10 0.15 0.26 0.35 0.41 0.32 0.35 0.44 0.49 0.70 0.85 0.85 0.90 0.91
0.55 0.44 0.35 0.32 0.32 0.27 0.23 0.23 0.23 0.21 0.20 0.17 0.16 0.16 0.15 0.15 0.17 0.21 0.21 0.20 0.22 0.23 0.19 0.17 0.13 0.11 0.11 0.09 0.08 0.11 0.15 0.20 0.29 0.37 0.36 0.34 0.49 0.65 0.83 0.90 0.92 0.94 0.94
0.88 0.57 0.49 0.47 0.45 0.42 0.36 0.34 0.36 0.36 0.33 0.29 0.30 0.30 0.29 0.31 0.39 0.49 0.41 0.44 0.42 0.44 0.42 0.38 0.34 0.30 0.25 0.18 0.18 0.24 0.21 0.23 0.45 0.54 0.44 0.48 0.60 0.81 0.99 1.00 0.98 1.02 1.03
1.07 0.66 0.51 0.51 0.47 0.46 0.53 0.70 0.65 0.60 0.60 0.56 0.64 0.66 0.69 0.76 0.75 0.65 0.69 0.83 0.93 1.06 1.00 0.91 0.88 0.69 0.56 0.48 0.82 1.01 0.39 0.31 0.40 0.55 0.56 0.56 0.75 1.08 1.27 1.14 1.03 1.00 0.96
0.94 0.76 0.62 0.69 0.69 0.63 0.65 0.73 0.80 0.81 0.88 0.82 0.85 0.97 1.04 1.00 0.94 0.89 0.96 1.14 1.24 1.39 1.36 1.56 1.59 1.27 1.21 1.20 1.33 1.26 0.69 0.66 0.61 0.58 0.72 0.83 0.93 1.22 1.51 1.33 1.13 1.03 0.92
1.25 1.13 1.03 1.05 0.98 0.92 0.88 0.89 0.89 0.90 0.95 0.96 1.08 1.11 1.30 1.36 1.29 1.26 1.33 1.38 1.48 1.62 1.92 1.85 1.96 1.84 1.69 1.59 1.50 1.34 1.10 1.09 0.99 0.99 1.26 1.12 1.01 1.28 1.61 1.49 1.27 1.17 1.07
1.82 1.70 1.51 1.33 1.25 1.21 1.23 1.19 1.14 1.15 1.14 1.27 1.42 1.43 1.52 1.70 1.65 1.66 1.59 1.63 1.57 1.79 2.08 2.14 2.05 2.22 2.23 2.03 1.75 1.57 1.49 1.38 1.25 1.29 1.42 1.35 1.22 1.28 1.53 1.62 1.48 1.38 1.28
2.10 2.09 1.87 1.70 1.63 1.64 1.72 1.76 1.63 1.55 1.65 1.72 1.71 1.65 1.74 1.91 2.07 2.10 1.96 1.90 1.80 1.85 2.04 2.17 2.20 2.61 2.47 2.33 1.90 1.70 1.63 1.59 1.49 1.45 1.49 1.60 1.34 1.20 1.29 1.53 1.67 1.63 1.56
2.37 2.24 2.18 2.13 2.06 2.14 2.11 2.10 1.96 1.92 1.91 1.90 1.91 1.97 1.97 1.97 2.17 2.24 2.23 2.09 2.06 2.06 2.17 2.18 2.37 2.60 2.31 2.19 1.90 1.80 1.70 1.57 1.43 1.47 1.60 1.72 1.55 1.34 1.18 1.27 1.51 1.64 1.71
2.56 2.56 2.53 2.41 2.42 2.48 2.48 2.39 2.27 2.13 1.98 1.85 1.88 1.99 1.99 2.04 2.21 2.29 2.10 1.99 2.26 2.35 2.38 2.46 2.53 2.56 2.41 2.33 2.12 1.80 1.68 1.61 1.29 1.29 1.34 1.33 1.40 1.24 1.32 1.43 1.52 1.57 1.71
2.98 3.09 3.08 3.01 2.81 2.66 2.65 2.66 2.65 2.53 2.27 2.03 1.99 2.01 2.03 1.96 2.04 2.18 2.02 2.08 2.33 2.41 2.38 2.21 2.52 2.50 2.44 2.35 1.99 1.70 1.46 1.29 1.16 1.03 1.00 0.94 1.05 1.08 1.15 1.28 1.41 1.41 1.63
3.16 3.39 3.31 3.21 3.21 3.22 3.12 2.90 2.85 2.61 2.36 2.23 2.19 2.21 2.12 2.01 2.04 2.19 2.08 2.16 2.31 2.37 2.31 2.33 2.46 2.49 2.32 2.27 1.82 1.50 1.29 1.04 1.03 0.97 0.81 0.84 0.86 0.83 0.86 1.04 1.30 1.13 1.44
3.40 3.56 3.59 3.85 3.82 3.64 3.34 2.94 2.75 2.61 2.53 2.37 2.19 2.01 1.98 1.99 2.07 2.26 2.15 2.30 2.31 2.15 2.14 2.31 2.45 2.31 2.09 2.25 2.01 1.42 1.04 0.84 0.86 0.81 0.81 0.87 0.83 0.82 0.92 1.13 1.24 1.19 1.14
3.22 3.52 3.44 3.20 3.16 3.13 2.99 2.85 2.80 2.83 2.55 2.29 2.14 1.94 1.81 1.85 1.93 1.94 1.99 1.98 2.03 2.08 2.10 2.16 2.32 2.12 1.80 2.01 1.98 1.69 1.13 0.88 0.76 0.67 0.79 0.81 0.81 0.91 0.96 1.10 1.35 1.48 1.36
2.36 2.50 2.52 2.50 2.34 2.23 2.24 2.32 2.39 2.44 2.21 2.00 1.90 1.82 1.69 1.64 1.60 1.61 1.63 1.76 1.99 2.09 2.05 2.09 2.10 1.98 1.67 1.68 1.84 1.90 1.39 1.02 0.80 0.56 0.61 0.73 0.88 1.04 1.04 1.22 1.35 1.46 1.54
1.98 1.97 1.89 1.85 1.86 1.81 1.84 1.93 1.90 1.86 1.76 1.71 1.69 1.60 1.54 1.48 1.44 1.40 1.42 1.48 1.55 1.64 1.68 1.61 1.73 1.84 1.79 1.60 1.71 1.76 1.61 1.43 1.24 0.81 0.64 0.68 0.86 0.97 1.07 1.10 1.12 1.20 1.48
1.37 1.48 1.49 1.52 1.54 1.54 1.53 1.54 1.55 1.51 1.50 1.48 1.40 1.34 1.27 1.23 1.29 1.28 1.23 1.22 1.19 1.25 1.38 1.41 1.51 1.56 1.60 1.58 1.62 1.69 1.66 1.62 1.58 1.37 0.99 0.93 0.92 0.83 0.91 1.00 1.03 1.08 1.36
1.12 1.25 1.30 1.34 1.35 1.33 1.32 1.32 1.31 1.30 1.28 1.24 1.19 1.19 1.15 1.10 1.04 1.03 1.06 1.09 1.07 1.12 1.22 1.30 1.37 1.33 1.42 1.48 1.51 1.59 1.65 1.63 1.66 1.67 1.34 1.19 1.08 0.92 0.94 0.91 0.91 0.98 1.19